• In Hungary
  • List of Countries
  • For 7 days
  • Water Temperature
  • Satellite Maps
  • Weather Map
  • News
  • Weather Widgets
  • user-avatar
    Login

    Hourly Weather Neuquén

    Today, 18 January, Thursday

    Time Temperature Precipitation Wind Pressure Humidity
    00:00 +28°C° 0 mm 7 mps 733 mmHg 26%
    01:00 +27°C° 0 mm 7 mps 733 mmHg 28%
    02:00 +26°C° 0 mm 6 mps 734 mmHg 30%
    03:00 +26°C° 0 mm 5 mps 734 mmHg 32%
    04:00 +25°C° 0 mm 4 mps 734 mmHg 33%
    05:00 +26°C° 0 mm 4 mps 735 mmHg 32%
    06:00 +26°C° 0 mm 4 mps 735 mmHg 30%
    07:00 +27°C° 0 mm 5 mps 735 mmHg 28%
    08:00 +28°C° 0 mm 4 mps 735 mmHg 26%
    09:00 +29°C° 0 mm 3 mps 736 mmHg 24%
    10:00 +30°C° 0 mm 1 mps 736 mmHg 22%
    11:00 +31°C° 0 mm 2 mps 735 mmHg 20%
    12:00 +32°C° 0 mm 2 mps 735 mmHg 19%
    13:00 +34°C° 0 mm 2 mps 734 mmHg 17%
    14:00 +34°C° 0 mm 2 mps 734 mmHg 16%
    15:00 +35°C° 0 mm 3 mps 733 mmHg 15%
    16:00 +36°C° 0 mm 3 mps 733 mmHg 14%
    17:00 +35°C° 0 mm 3 mps 732 mmHg 14%
    18:00 +35°C° 0 mm 3 mps 732 mmHg 14%
    19:00 +35°C° 0 mm 2 mps 732 mmHg 14%
    20:00 +34°C° 0 mm 2 mps 732 mmHg 15%
    21:00 +32°C° 0 mm 2 mps 733 mmHg 16%
    22:00 +31°C° 0 mm 2 mps 733 mmHg 17%
    23:00 +31°C° 0 mm 2 mps 733 mmHg 18%

    Tomorrow, 19 January, Friday

    Time Temperature Precipitation Wind Pressure Humidity
    00:00 +30°C° 0 mm 2 mps 733 mmHg 19%
    01:00 +30°C° 0 mm 2 mps 732 mmHg 19%
    02:00 +29°C° 0 mm 2 mps 733 mmHg 20%
    03:00 +29°C° 0 mm 3 mps 733 mmHg 20%
    04:00 +28°C° 0 mm 3 mps 733 mmHg 21%
    05:00 +29°C° 0 mm 5 mps 733 mmHg 21%
    06:00 +29°C° 0 mm 7 mps 734 mmHg 21%
    07:00 +31°C° 0 mm 8 mps 734 mmHg 21%
    08:00 +32°C° 0 mm 8 mps 734 mmHg 20%
    09:00 +34°C° 0 mm 7 mps 734 mmHg 18%
    10:00 +35°C° 0 mm 7 mps 734 mmHg 17%
    11:00 +36°C° 0 mm 6 mps 733 mmHg 16%
    12:00 +37°C° 0 mm 5 mps 733 mmHg 15%
    13:00 +40°C° 0 mm 4 mps 732 mmHg 14%
    14:00 +39°C° 0 mm 3 mps 731 mmHg 13%
    15:00 +40°C° 0 mm 3 mps 731 mmHg 12%
    16:00 +40°C° 0 mm 3 mps 730 mmHg 12%
    17:00 +40°C° 0 mm 3 mps 730 mmHg 12%
    18:00 +41°C° 0 mm 4 mps 729 mmHg 12%
    19:00 +40°C° 0 mm 4 mps 729 mmHg 12%
    20:00 +39°C° 0 mm 5 mps 729 mmHg 13%
    21:00 +38°C° 0 mm 6 mps 729 mmHg 15%
    22:00 +36°C° 0 mm 7 mps 729 mmHg 16%
    23:00 +35°C° 0 mm 8 mps 729 mmHg 17%

    Day after tomorrow, 20 January, Saturday

    Time Temperature Precipitation Wind Pressure Humidity
    00:00 +34°C° 0 mm 8 mps 729 mmHg 19%
    01:00 +33°C° 0 mm 8 mps 729 mmHg 21%
    02:00 +32°C° 0 mm 8 mps 729 mmHg 22%
    03:00 +30°C° 0 mm 7 mps 728 mmHg 23%
    04:00 +30°C° 0 mm 6 mps 728 mmHg 24%
    05:00 +32°C° 0 mm 6 mps 728 mmHg 22%
    06:00 +33°C° 0 mm 5 mps 729 mmHg 21%
    07:00 +34°C° 0 mm 4 mps 729 mmHg 19%
    08:00 +36°C° 0 mm 4 mps 729 mmHg 17%
    09:00 +38°C° 0 mm 4 mps 729 mmHg 16%
    10:00 +41°C° 0 mm 4 mps 729 mmHg 14%
    11:00 +42°C° 0 mm 4 mps 728 mmHg 13%
    12:00 +42°C° 0 mm 5 mps 728 mmHg 12%
    13:00 +44°C° 0 mm 6 mps 727 mmHg 11%
    14:00 +44°C° 0 mm 6 mps 727 mmHg 10%
    15:00 +44°C° 0 mm 6 mps 726 mmHg 10%
    16:00 +44°C° 0 mm 7 mps 726 mmHg 10%
    17:00 +43°C° 0 mm 7 mps 726 mmHg 11%
    18:00 +41°C° 0 mm 7 mps 727 mmHg 13%
    19:00 +40°C° 0 mm 8 mps 727 mmHg 15%
    20:00 +38°C° 0.1 mm 8 mps 727 mmHg 20%
    21:00 +35°C° 0.1 mm 8 mps 728 mmHg 25%
    22:00 +33°C° 0.1 mm 8 mps 728 mmHg 30%
    23:00 +32°C° 0 mm 8 mps 728 mmHg 32%

    21 January, Sunday

    Time Temperature Precipitation Wind Pressure Humidity
    00:00 +30°C° 0 mm 7 mps 728 mmHg 33%
    01:00 +29°C° 0 mm 7 mps 728 mmHg 35%
    02:00 +29°C° 0 mm 7 mps 728 mmHg 35%
    03:00 +28°C° 0 mm 6 mps 728 mmHg 36%
    04:00 +28°C° 0 mm 6 mps 728 mmHg 36%
    05:00 +28°C° 0 mm 6 mps 728 mmHg 37%
    06:00 +27°C° 0 mm 6 mps 729 mmHg 37%
    07:00 +27°C° 0 mm 6 mps 729 mmHg 38%
    08:00 +29°C° 0 mm 5 mps 729 mmHg 36%
    09:00 +30°C° 0 mm 4 mps 729 mmHg 33%
    10:00 +31°C° 0 mm 3 mps 729 mmHg 31%
    11:00 +32°C° 0 mm 2 mps 728 mmHg 30%
    12:00 +32°C° 0 mm 2 mps 728 mmHg 28%
    13:00 +33°C° 0 mm 1 mps 727 mmHg 27%
    14:00 +32°C° 0.1 mm 2 mps 727 mmHg 30%
    15:00 +33°C° 0.1 mm 4 mps 727 mmHg 33%
    16:00 +32°C° 0.1 mm 6 mps 726 mmHg 36%
    17:00 +30°C° 0.4 mm 6 mps 726 mmHg 41%
    18:00 +29°C° 0.4 mm 7 mps 726 mmHg 45%
    19:00 +27°C° 0.4 mm 8 mps 726 mmHg 50%
    20:00 +28°C° 0.5 mm 8 mps 726 mmHg 44%
    21:00 +28°C° 0.5 mm 8 mps 725 mmHg 39%
    22:00 +28°C° 0.5 mm 9 mps 725 mmHg 33%
    23:00 +28°C° 0.3 mm 9 mps 725 mmHg 30%

    22 January, Monday

    Time Temperature Precipitation Wind Pressure Humidity
    00:00 +27°C° 0.3 mm 10 mps 725 mmHg 27%
    01:00 +27°C° 0.3 mm 11 mps 725 mmHg 25%
    02:00 +26°C° 0.2 mm 10 mps 724 mmHg 24%
    03:00 +26°C° 0.2 mm 10 mps 724 mmHg 24%
    04:00 +24°C° 0.2 mm 10 mps 724 mmHg 23%
    05:00 +24°C° 0 mm 11 mps 724 mmHg 23%
    06:00 +26°C° 0 mm 11 mps 724 mmHg 22%
    07:00 +26°C° 0 mm 11 mps 725 mmHg 21%
    08:00 +27°C° 0 mm 11 mps 725 mmHg 20%
    09:00 +29°C° 0 mm 10 mps 725 mmHg 19%
    10:00 +31°C° 0 mm 9 mps 726 mmHg 18%
    11:00 +32°C° 0 mm 9 mps 726 mmHg 17%
    12:00 +33°C° 0 mm 8 mps 725 mmHg 16%
    13:00 +34°C° 0 mm 7 mps 725 mmHg 14%
    14:00 +35°C° 0 mm 8 mps 725 mmHg 13%
    15:00 +35°C° 0 mm 9 mps 725 mmHg 12%
    16:00 +36°C° 0 mm 10 mps 725 mmHg 11%
    17:00 +34°C° 0 mm 10 mps 725 mmHg 13%
    18:00 +33°C° 0 mm 10 mps 726 mmHg 14%
    19:00 +32°C° 0 mm 10 mps 726 mmHg 15%
    20:00 +31°C° 0 mm 10 mps 726 mmHg 17%
    21:00 +29°C° 0 mm 10 mps 727 mmHg 19%
    22:00 +27°C° 0 mm 10 mps 727 mmHg 20%
    23:00 +26°C° 0 mm 9 mps 727 mmHg 22%

    23 January, Tuesday

    Time Temperature Precipitation Wind Pressure Humidity
    00:00 +24°C° 0 mm 9 mps 727 mmHg 24%
    01:00 +23°C° 0 mm 9 mps 727 mmHg 26%
    02:00 +23°C° 0 mm 8 mps 727 mmHg 27%
    03:00 +22°C° 0 mm 8 mps 727 mmHg 28%
    04:00 +21°C° 0 mm 7 mps 727 mmHg 29%
    05:00 +22°C° 0 mm 8 mps 728 mmHg 27%
    06:00 +23°C° 0 mm 8 mps 728 mmHg 26%
    07:00 +23°C° 0 mm 9 mps 729 mmHg 24%
    08:00 +26°C° 0 mm 8 mps 729 mmHg 22%
    09:00 +27°C° 0 mm 8 mps 729 mmHg 20%
    10:00 +28°C° 0 mm 7 mps 729 mmHg 17%
    11:00 +29°C° 0 mm 7 mps 729 mmHg 16%
    12:00 +30°C° 0 mm 6 mps 729 mmHg 15%
    13:00 +32°C° 0 mm 6 mps 728 mmHg 13%
    14:00 +32°C° 0 mm 5 mps 728 mmHg 13%
    15:00 +33°C° 0 mm 5 mps 728 mmHg 12%
    16:00 +33°C° 0 mm 4 mps 728 mmHg 12%
    17:00 +33°C° 0 mm 4 mps 728 mmHg 12%
    18:00 +31°C° 0 mm 3 mps 728 mmHg 13%
    19:00 +31°C° 0 mm 3 mps 728 mmHg 13%
    20:00 +30°C° 0 mm 4 mps 729 mmHg 14%
    21:00 +29°C° 0 mm 5 mps 730 mmHg 15%
    22:00 +28°C° 0 mm 6 mps 730 mmHg 16%
    23:00 +27°C° 0 mm 6 mps 731 mmHg 21%
    Show more